STARLINK-33785, 63516

Orbit data source: Space-Track

STARLINK-33785, 63516 is a payload satellite owned by SpaceX/Seattle (US) in LEO that was launched on Mon, 07 Apr 2025 UTC via an FALCON 9 launch vehicle from the Air Force Western Test Range (AFWTR). Payload-class satellites include a variety of spacecraft equipped with specific instruments for various scientific and technological missions. These include communications satellites like Starlink; space stations such as the ISS; scientific satellites like the Hubble; Earth observation satellites from companies like Planet Labs, Umbra, and HawkEye 360; GPS; miniature CubeSats for education and research; and military/defense satellites.

Loading next visibility...
Identifier
63516, 2025-071Z
Orbit
LEO
Country
Flag of USUS
Related business
Manufacturer
SpaceX/Seattle
Mission
Operational Commercial Communications
Bus & Motor
STARLINK V2MO, Unknown motor
Mass
575 kg wet, ~530 kg dry
Launch date (UTC)
2025-04-07 (1 year ago)
Launch vehicle
FALCON 9
Launch site
Air Force Western Test Range (AFWTR)
Object type
Payload
Rocket body
Debris
Shape & HBR
Box + 1 Pan, 17.7 m
Radar Cross Section
41.120 m², Large (>1 m²)

Expand to show TLE details & history
Last TLE update: 13 hours ago

TLE from 13 hours ago
0 STARLINK-33785
1 63516U 25071Z   26262.84789208  .00009303  00000-0  31098-3 0  9999
2 63516  53.1606 316.8195 0000805  94.0185 266.0908 15.31718750 82499
Epoch: 2026-09-19T20:20Z
TLE epoch observation values (Epoch: 2026-09-19T20:20:57.875Z)
Latitude
-0.00007°
Longitude
12.82776°
Altitude
471.622 km
Speed
7.631 km/s
True Right ascension
21h 07m 16s
True Declination
0° 00' 00"
Sunlit
Object was in full shadow at epoch
Visualization orbit readout
Latitude
Unknown
Longitude
Unknown
Altitude
Unknown
Speed
Unknown
Apparent Right ascension
Unknown
Apparent Declination
Unknown
Sunlit
N/A
Visualization observer readout
Local Sidereal Time
02:39:44
Azimuth
Unknown
Elevation
Unknown
Doppler factor
Unknown
Orbital elements
Apogee altitude
471.492 km
Perigee altitude
470.389 km
Semi-major axis
6,849.078 km
Eccentricity
0.00008
Inclination
53.1606°
RAAN
316.8195°
Arg. of periapsis
94.0185°
True anomaly
266.0816°
Mean anomaly
266.0908°
Eccentric anomaly
266.0862°
Mean motion
3.82909 °/min
Orbital period
94.02 mins
BSTAR
0.00031098
Loading maneuver chart data...
Computing Atmospheric mass density...
Loading historical data...
Loading historical data...
Loading historical data...
Loading historical data...
Loading historical data...
Loading historical data...
Loading historical data...

Documentation

Showing up to 5 results
|